User: anonymous   Login
Location: Unspecified
(0.0000°N, 0.0000°E)
Time: 00:53:16
(UTC+00:00)
Language:

Explorer 26 - Orbit

View from above orbital plane
View from above orbital plane
View from above satellite
View from above satellite

Ground track
Ground track

The orbit data is extracted from the following two-line orbital elements,

1   963U 64086A   18265.59174501 +.00048607 -12050-4 +45924-3 0  9991
2   963 019.7203 356.5630 0982431 334.2953 021.1632 13.77741254104940
Epoch (UTC): 22 September 2018 14:12:06
Eccentricity: 0.0982431
inclination: 19.7203°
perigee height: 250 km
apogee height: 1694 km
right ascension of ascending node: 356.5630°
argument of perigee: 334.2953°
revolutions per day: 13.77741254
mean anomaly at epoch: 21.1632°
orbit number at epoch: 10494

The dashed part of the orbit path shows where the satellite is in the earth's shadow,  

DLR